1998-067XF

Last updated on Fri Dec 13 2024 00:02:07 GMT+0000 (Coordinated Universal Time)

1 62299U 98067XF 24347.66889013 .00084617 00000+0 13985-2 0 9992 2 62299 51.6366 151.1023 0009152 321.6204 38.4133 15.51454837 493
UTC large
Height (km)
Speed (km/s)
/
Latitude / Longitude
Inclination (degrees)
Orbital Period (minutes)
Azimuth
Elevation
Range (km)
Doppler Factor

Next 0 passes for location: London (51.5072 / 0.1276)

Sorry there are no passes over London.